Powrót do katalogu

CZ-6A DEB

AktywnyPO
NORAD 60901·DEBRIS·🇨🇳 China

Wystrzelony Aug 6, 2024 z Taiyuan Satellite Launch Center

Loading…

Następne Przeloty (najbliższe 24 godziny)

TLE

ŚwieżeSource: Space-Track

Epoka: Sep 14, 2026, 10:05 UTC

1 60901U 24140LG  26257.42081439  .00003392  00000-0  70852-3 0  9992
2 60901  88.9725 257.4017 0066805 253.9496 105.4352 14.58286900109919

Śledź CZ-6A DEB w czasie rzeczywistym z AllMySat

Download on the App Store